Regional Weather Roundup
Issued by NWS

Home | Current Version | Previous Version | Text Only | Print | Product List | Glossary Off
Versions: 1 2 3 4 5 6 7 8 9 10 11 12 13 14 15 16 17 18 19 20 21 22 23 24 25 26 27

000
ASUS43 KDMX 160907
RWRIA

WEATHER ROUNDUP FOR IOWA
NATIONAL WEATHER SERVICE DES MOINES IA
400 AM CDT WED APR 16 2014

NOTE: "FAIR" INDICATES FEW OR NO CLOUDS BELOW 12,000 FEET WITH NO
SIGNIFICANT WEATHER AND/OR OBSTRUCTIONS TO VISIBILITY.

* - THESE STATIONS ARE NOT NWS STATIONS...THUS NOT UNDER NWS
QUALITY CONTROL.  THEY ALSO DO NOT REPORT WEATHER SUCH
AS PRECIPITATION OR FOG.

IAZ001>003-012>014-020>022-031>034-043>046-161000-
   NORTHWEST IOWA

CITY           SKY/WX    TMP DP  RH WIND       PRES   REMARKS
CARROLL *      PTCLDY    43  30  61 S21G26    29.81F
CHEROKEE *     CLOUDY    39  32  75 S13       29.75F WCI  32
DENISON *      PTCLDY    43  30  61 S26G39    29.75F
LE MARS *      CLOUDY    48  28  46 S24       29.68S
ORANGE CITY *  MOCLDY    43  28  56 SE13G18   29.69F
SHELDON *      CLOUDY    39  30  70 SE18G25   29.70F WCI  30
SIOUX CITY     CLOUDY    48  29  47 SE16      29.68F
SPENCER        CLOUDY    38  28  67 SE23G29   29.77F WCI  27
STORM LAKE *   CLOUDY    37  32  81 SE12      29.78S WCI  30
$$

IAZ055>058-069>071-079>083-090>094-161000-
   SOUTHWEST IOWA

CITY           SKY/WX    TMP DP  RH WIND       PRES   REMARKS
ATLANTIC *     MOCLDY    45  30  57 S21G29    29.82F
AUDUBON *      CLEAR     45  27  49 S20G29    29.82F
CLARINDA *     CLEAR     45  30  57 S16G24    29.88S
COUNCIL BLFS * PTCLDY    43  30  61 S17       29.78F
CRESTON *      CLEAR     41  28  60 S18G26    29.89S
HARLAN  *      CLEAR     43  30  61 S22G31    29.83S
LAMONI         PTCLDY    40  26  57 S12       29.94S WCI  33
RED OAK *      MOCLDY    43  30  61 S17G23    29.84F
SHENANDOAH *   CLEAR     45  30  57 S21G33    29.85F
$$

IAZ047>049-059>061-072>074-084-161000-
   CENTRAL IOWA

CITY           SKY/WX    TMP DP  RH WIND       PRES   REMARKS
AMES           CLOUDY    37  27  67 SE15      29.92F WCI  28
ANKENY *       PTCLDY    37  28  70 SE9       29.92F WCI  31
CHARITON *     CLOUDY    41  27  56 S18G24    29.95S
DES MOINES     CLOUDY    42  27  55 S16       29.93F
GRINNELL*      CLOUDY    36  27  69 SE15      29.99S WCI  26
KNOXVILLE *    CLOUDY    39  25  56 SE13      29.95F WCI  32
MARSHALLTOWN   CLOUDY    36  25  64 SE15G24   29.97F WCI  27
NEWTON *       CLOUDY    36  27  69 SE16      29.96F WCI  26
PELLA *        PTCLDY    37  27  65 SE12G17   29.98F WCI  30
PERRY *          N/A     39  30  70 SE13      29.88S WCI  32
$$

IAZ004>006-015-016-023>025-035-036-161000-
   NORTH CENTRAL IOWA

CITY           SKY/WX    TMP DP  RH WIND       PRES   REMARKS
ALGONA *       PTCLDY    36  27  69 SE23G29   29.83F WCI  24
CLARION *      MOCLDY    36  27  69 SE22G30   29.88F WCI  24
ESTHERVILLE    CLOUDY    35  26  69 SE26      29.79F WCI  22
FORT DODGE *   CLOUDY    37  27  65 SE13G21   29.86F WCI  29
MASON CITY     CLOUDY    33  22  63 SE21G29   29.94F WCI  21
FOREST CITY *  CLOUDY    34  23  64 SE17G28   29.89F WCI  23
IOWA FALLS *   CLOUDY    34  27  75 SE16      29.94F WCI  23
$$

IAZ007>011-017>019-026>030-037>042-050>054-066-161000-
   NORTHEAST IOWA

CITY           SKY/WX    TMP DP  RH WIND       PRES   REMARKS
CEDAR RAPIDS   PTCLDY    33  22  63 SE10      30.05F WCI  25
CHARLES CITY * CLOUDY    34  19  55 SE20G26   30.00S WCI  22
CLINTON *      PTCLDY    32  19  59 SE13      30.18R WCI  22
DECORAH *      MOCLDY    32  19  59 SE12G18   30.05S WCI  23
DUBUQUE        PTCLDY    29  20  69 SE15      30.11S WCI  18
MONTICELLO *   PTCLDY    34  18  51 SE16      30.10S WCI  23
OELWEIN *      CLOUDY   N/A N/A N/A SE23      30.04F
WATERLOO       CLOUDY    34  20  56 SE16G24   30.02S WCI  24
$$

IAZ064-065-067-068-078-161000-
   EAST CENTRAL IOWA

CITY           SKY/WX    TMP DP  RH WIND       PRES   REMARKS
DAVENPORT      CLEAR     31  20  63 SE12      30.14S WCI  22
IOWA CITY      CLEAR     32  23  69 SE9       30.10S WCI  24
MT. PLEASANT * PTCLDY    36  25  64 SE15      30.08S WCI  26
MUSCATINE *    CLOUDY    34  23  64 SE9       30.12R WCI  26
QUAD CITIES    CLEAR     32  21  64 SE12      30.15S WCI  23
$$

IAZ062-063-075>077-085>089-095>099-161000-
   SOUTHEAST IOWA

CITY           SKY/WX    TMP DP  RH WIND       PRES   REMARKS
BURLINGTON     CLEAR     37  23  56 S12       30.11S WCI  29
FAIRFIELD *    CLEAR     36  25  64 SE14G21   30.05S WCI  27
FORT MADISON * CLEAR     37  25  60 SE12G17   30.10F WCI  30
KEOKUK *       PTCLDY    39  23  52 S10       30.09S WCI  32
OSKALOOSA *    MOCLDY    37  28  70 SE16      30.01S WCI  28
CENTERVILLE *  CLEAR     39  25  56 SE14      30.00F WCI  31
OTTUMWA        PTCLDY    38  25  59 S17G25    30.01S WCI  28
WASHINGTON *   CLOUDY    34  25  69 SE15      30.07S WCI  24
$$

ABBREVIATIONS USED IN REMARKS
   TC - TEMPERATURES IN CELSIUS
  WCI - WIND CHILL INDEX
   HX - HEAT INDEX
  VSB - VISIBILITY
$$




USA.gov is the U.S. government's official web portal to all federal, state and local government web resources and services.